View from above orbital plane
|
View from above satellite
|
Ground track
|
The orbit data is extracted from the following two-line orbital elements,
1 00053U 60009E 21020.90034283 -.00000078 00000-0 72081-4 0 9995
2 00053 47.2777 308.4211 0100404 3.4120 356.7335 12.17252458695056
Epoch (UTC): | 20 January 2021 21:36:29 |
Eccentricity: | 0.0100404 |
inclination: | 47.2777° |
perigee height: | 1524 km |
apogee height: | 1684 km |
right ascension of ascending node: | 308.4211° |
argument of perigee: | 3.4120° |
revolutions per day: | 12.17252458 |
mean anomaly at epoch: | 356.7335° |
orbit number at epoch: | 69505 |
The dashed part of the orbit path shows where the satellite is in the earth's shadow,
|
|